Wind_Speed
17 17 18 19 19 19 18 16 15 13 12 12 11 10 10 10 10 10 10 11 12 12 13 14 15 16 16 17 17 18 19 20 21 22 22 21 21 22 22 22 22 22 22
17 17 18 18 19 19 19 17 16 14 13 13 12 11 11 11 11 11 12 12 13 13 14 15 16 16 17 18 18 18 19 20 21 22 23 23 23 23 24 24 24 24 24
18 18 19 19 19 20 19 18 17 16 15 14 13 12 12 11 12 12 13 13 14 14 15 16 17 17 18 19 19 19 19 20 20 21 22 23 23 24 24 25 25 26 26
19 19 19 20 20 20 20 19 18 17 16 15 15 14 13 12 12 13 14 14 15 15 16 16 18 18 19 20 21 21 21 21 21 22 22 23 24 25 25 26 26 26 26
21 21 20 20 21 20 20 20 19 18 17 17 16 15 14 14 13 14 15 16 16 16 17 17 18 19 20 21 22 22 22 23 23 23 24 25 25 26 26 26 27 27 27
23 23 22 22 22 21 21 20 20 19 18 18 17 16 15 15 14 15 16 16 17 17 17 18 19 19 19 20 21 22 22 22 23 24 24 25 26 26 27 27 27 27 27
24 25 25 24 24 23 22 21 21 20 20 19 19 18 17 16 15 16 16 17 17 18 18 19 19 20 20 21 21 22 22 22 23 24 25 26 27 27 28 28 28 28 29
24 25 26 26 26 26 24 22 21 21 21 21 20 19 18 17 17 17 17 17 17 17 18 18 18 19 19 20 21 22 22 23 23 24 25 26 26 27 27 28 28 29 29
24 24 25 27 27 26 24 22 22 22 22 22 21 21 20 19 18 18 17 17 17 18 17 17 18 18 18 19 20 21 22 22 23 23 23 24 25 26 26 27 28 29 30
24 25 26 26 26 25 24 22 22 22 22 22 23 23 23 21 20 20 19 19 18 18 18 18 18 19 20 20 21 22 22 23 23 24 24 25 25 26 27 27 28 29 30
26 26 27 27 27 26 24 23 22 21 22 22 23 24 24 24 23 21 20 20 19 19 19 19 20 21 22 24 25 25 26 26 27 27 28 28 29 29 30 31 31 32 32
29 28 28 28 29 28 26 25 23 21 21 22 23 25 25 25 25 23 22 21 21 21 21 22 23 24 25 27 28 28 28 29 29 30 30 31 32 32 33 34 34 35 35
32 30 30 30 30 30 29 27 25 22 22 22 23 25 26 26 26 25 24 23 23 23 23 24 25 26 27 28 28 28 28 28 29 30 30 31 32 33 34 35 36 37 37
34 32 32 32 32 32 32 30 27 24 23 23 24 25 26 27 27 26 25 25 25 25 25 26 27 27 28 28 27 27 27 27 28 29 30 32 33 34 35 36 37 39 39
35 35 34 33 33 34 34 32 30 27 25 25 25 26 27 27 27 26 25 26 26 26 26 27 28 28 29 28 28 27 28 28 29 30 32 33 34 35 36 37 38 39 40
37 37 36 35 35 34 34 34 33 30 28 27 27 28 28 28 27 26 26 27 27 27 28 29 29 30 30 29 29 29 30 31 32 33 34 35 36 37 38 39 40 40 41
38 38 38 37 36 35 35 35 34 32 31 30 30 30 30 29 28 28 28 28 28 28 29 30 30 30 31 30 31 31 32 33 34 36 37 37 38 39 40 41 42 42 43
39 39 40 39 37 36 36 36 35 34 33 32 32 32 31 31 30 30 29 29 29 29 30 30 31 31 32 32 32 33 34 36 37 38 38 39 41 42 43 44 45 45 46
40 40 41 40 39 38 37 36 36 35 35 34 34 34 33 33 32 31 31 31 30 31 31 32 32 33 33 34 35 36 37 38 39 40 41 43 44 45 46 47 48 48 49
42 42 41 41 41 40 39 37 36 36 36 36 36 36 35 34 34 33 32 32 32 32 33 33 34 35 35 36 37 39 40 42 42 43 45 46 47 48 49 50 51 52 53
43 43 42 43 42 42 41 39 37 37 37 37 37 37 36 35 35 34 34 34 34 34 35 35 36 37 37 38 40 42 43 44 45 47 48 49 50 51 52 54 55 56 57
44 44 43 43 43 43 42 41 39 38 38 37 37 37 36 35 35 36 36 36 36 36 37 38 39 39 39 40 42 44 46 47 48 50 51 52 53 54 56 57 59 60 61
46 45 44 43 43 44 43 42 40 38 38 37 37 37 36 36 37 37 37 37 38 38 39 40 41 42 42 43 45 46 48 49 50 50 53 55 56 57 59 61 63 64 66
47 46 45 44 44 44 43 42 41 39 38 37 37 37 37 37 37 37 38 38 39 40 41 42 43 44 45 46 47 49 50 52 53 52 52 54 57 59 61 63 65 67 68
49 47 46 45 44 44 43 42 41 39 37 37 37 37 37 38 38 38 39 40 41 42 43 44 44 45 47 48 50 51 52 54 56 57 56 56 58 60 62 64 66 68 70
51 50 48 45 43 43 43 42 40 38 37 37 37 37 37 38 38 39 40 41 42 43 44 44 45 46 48 50 52 53 55 57 58 60 61 61 62 63 64 65 66 68 70
Wind_Direction
256 256 254 252 253 253 252 252 252 255 259 263 263 260 257 256 254 255 257 260 264 267 270 270 270 270 269 269 271 273 275 275 274 272 272 273 275 278 280 281 282 283 283
255 254 253 253 253 253 253 254 255 258 262 265 264 261 257 255 255 256 256 258 261 264 267 270 271 272 273 273 274 276 276 276 276 275 274 274 276 278 280 282 283 283 283
249 251 252 252 252 253 254 255 257 261 264 266 266 264 261 257 255 255 255 255 258 261 264 267 270 272 274 275 276 277 276 276 276 276 275 275 277 279 281 283 284 284 283
246 248 251 251 252 252 253 255 258 261 264 266 266 266 263 258 256 254 253 254 256 258 261 264 267 269 271 273 275 276 276 276 277 277 277 278 279 280 281 283 285 285 284
251 252 253 252 253 253 254 255 257 260 262 265 266 265 262 259 257 256 255 254 255 257 259 262 265 267 269 271 273 274 275 276 277 278 279 280 280 281 282 284 285 285 285
257 258 259 258 255 254 253 254 257 258 260 262 263 263 262 260 259 259 259 258 258 258 260 262 265 268 270 272 274 275 276 278 279 281 281 282 282 282 283 284 285 285 284
259 262 262 261 259 256 253 254 256 257 258 259 260 260 260 259 260 261 261 262 262 262 264 265 268 270 273 275 277 278 279 281 282 283 283 284 284 284 284 285 285 285 284
259 262 264 263 262 260 257 255 255 256 257 257 257 257 256 257 259 260 261 262 264 265 267 269 271 273 276 278 279 280 280 281 282 283 283 284 284 284 285 285 285 285 284
258 261 263 264 263 260 258 256 255 255 256 255 255 254 254 255 257 259 261 262 264 267 269 271 273 275 277 279 280 281 281 282 282 283 283 284 285 286 286 286 286 286 285
254 257 259 261 260 258 256 255 255 256 256 255 255 254 253 253 255 257 260 262 265 267 270 272 274 276 279 280 282 283 283 283 283 284 284 285 286 286 287 288 288 287 287
252 253 255 256 254 253 252 253 254 256 257 257 257 256 254 253 254 256 259 262 264 267 271 274 277 279 282 284 285 285 285 284 284 284 284 285 286 287 288 288 288 287 287
251 252 254 254 252 249 249 251 254 256 259 260 259 258 256 254 254 256 258 261 265 269 273 277 281 284 286 287 287 287 286 285 285 285 284 284 285 286 287 287 287 287 286
251 251 252 252 250 249 249 250 252 255 259 262 262 260 258 256 256 257 260 262 266 270 275 279 283 286 289 289 289 289 288 287 286 286 286 286 286 285 286 286 286 286 285
251 251 251 250 250 249 249 250 252 254 258 262 264 262 259 258 258 258 260 262 265 270 274 279 283 286 288 289 289 289 290 289 288 288 288 288 288 288 287 287 286 286 286
250 250 250 250 250 251 251 252 254 256 259 261 262 262 260 258 258 258 260 262 264 268 273 277 281 284 286 287 288 289 290 291 291 291 291 291 291 291 291 290 289 289 288
249 249 250 250 251 252 253 254 256 257 259 260 261 261 260 258 258 258 259 260 263 267 271 276 280 282 285 286 287 289 290 291 292 293 293 292 293 293 293 292 292 291 290
247 248 249 250 251 252 253 254 255 257 258 260 262 261 260 258 258 258 259 261 263 267 271 275 280 283 285 286 287 288 289 291 293 293 293 293 293 293 292 292 291 290 289
246 247 248 249 251 252 253 254 255 256 258 259 260 260 260 258 257 258 259 260 263 267 271 276 281 285 286 286 287 288 289 291 293 293 293 293 293 292 291 290 290 289 287
244 245 246 248 250 251 253 254 255 256 257 258 258 258 258 258 258 257 258 261 263 268 272 277 282 285 287 287 288 289 291 292 293 293 293 293 293 292 291 289 288 287 285
242 243 244 246 247 250 252 254 256 256 257 258 257 257 257 257 257 257 258 261 264 268 273 278 282 285 287 288 289 290 292 292 293 294 293 293 292 291 290 289 288 286 285
242 242 243 244 246 248 250 252 254 256 257 257 257 257 257 257 257 258 259 261 265 269 274 278 282 285 287 288 290 291 292 292 293 293 294 293 292 291 290 289 288 288 287
241 242 242 244 245 247 249 251 253 255 256 257 258 258 259 259 258 258 259 262 266 270 275 278 282 285 287 288 290 291 292 293 294 295 295 294 293 292 291 291 290 290 289
240 241 242 243 245 246 249 251 252 253 255 256 257 258 259 259 259 260 261 264 268 272 276 279 282 285 287 288 290 291 292 292 293 294 295 295 295 294 294 293 293 292 291
239 239 240 242 244 246 248 250 251 253 253 254 255 257 258 260 261 262 263 266 270 273 277 280 283 285 287 289 290 291 292 293 293 293 292 292 292 293 293 293 292 292 291
236 236 237 240 242 244 246 249 251 253 254 254 255 257 259 261 262 263 265 268 271 275 278 281 284 286 288 289 291 293 294 294 295 295 295 293 293 292 292 292 292 292 291
234 234 235 236 239 242 244 247 250 252 253 254 255 257 259 261 263 265 267 270 273 276 279 282 285 287 288 290 292 294 295 296 296 296 296 295 294 294 294 293 293 292 292
Height
5855 5855 5856 5856 5857 5858 5858 5858 5858 5858 5858 5858 5857 5857 5856 5855 5855 5854 5854 5854 5854 5854 5854 5854 5854 5854 5854 5854 5854 5854 5853 5853 5852 5852 5852 5852 5852 5851 5851 5850 5850 5849 5848
5852 5852 5852 5853 5853 5854 5855 5855 5855 5855 5855 5855 5855 5854 5854 5853 5852 5852 5852 5852 5851 5851 5851 5851 5851 5851 5851 5851 5851 5850 5850 5849 5849 5849 5848 5848 5848 5848 5847 5847 5846 5845 5845
5848 5848 5848 5849 5850 5850 5851 5851 5852 5852 5852 5852 5852 5851 5851 5850 5850 5850 5849 5849 5849 5849 5848 5848 5848 5848 5848 5847 5847 5847 5846 5846 5845 5845 5845 5844 5844 5844 5843 5842 5842 5841 5841
5844 5844 5845 5845 5846 5846 5847 5848 5848 5848 5849 5849 5848 5848 5848 5848 5847 5847 5847 5846 5846 5846 5846 5845 5845 5845 5845 5844 5844 5844 5843 5842 5842 5841 5841 5840 5840 5839 5839 5838 5837 5837 5836
5840 5840 5841 5842 5842 5843 5843 5844 5844 5845 5845 5845 5845 5845 5845 5845 5844 5844 5844 5844 5843 5843 5843 5842 5842 5842 5841 5841 5840 5840 5839 5839 5838 5837 5837 5836 5836 5835 5834 5834 5833 5832 5831
5837 5837 5837 5838 5838 5839 5839 5840 5840 5841 5841 5841 5842 5842 5841 5841 5841 5841 5841 5841 5840 5840 5839 5839 5839 5838 5838 5837 5837 5836 5836 5835 5834 5833 5832 5832 5831 5830 5829 5828 5828 5827 5826
5833 5833 5834 5834 5834 5835 5835 5836 5836 5837 5837 5838 5838 5838 5838 5838 5838 5838 5837 5837 5837 5836 5836 5836 5835 5834 5834 5833 5833 5832 5832 5831 5830 5829 5828 5826 5826 5825 5824 5823 5822 5822 5821
5829 5829 5829 5830 5830 5831 5832 5832 5832 5832 5833 5833 5834 5834 5834 5834 5834 5834 5834 5833 5833 5833 5832 5832 5831 5831 5830 5829 5829 5828 5827 5826 5825 5824 5822 5821 5820 5819 5818 5817 5816 5815 5814
5824 5825 5825 5825 5826 5826 5827 5828 5828 5828 5829 5829 5830 5830 5830 5830 5830 5830 5830 5830 5829 5829 5829 5828 5828 5827 5826 5825 5824 5823 5822 5821 5820 5818 5817 5816 5814 5813 5812 5811 5810 5809 5808
5820 5820 5820 5821 5821 5822 5823 5823 5824 5824 5824 5825 5825 5826 5826 5826 5826 5826 5826 5826 5826 5825 5825 5824 5823 5822 5821 5820 5819 5818 5817 5815 5814 5813 5811 5810 5809 5808 5806 5805 5804 5802 5801
5815 5815 5816 5816 5816 5817 5818 5819 5819 5819 5819 5820 5820 5821 5821 5821 5821 5821 5821 5822 5821 5821 5820 5820 5819 5818 5817 5815 5814 5813 5811 5810 5808 5807 5805 5804 5803 5801 5800 5799 5797 5796 5794
5809 5810 5811 5811 5812 5812 5813 5814 5814 5815 5815 5815 5815 5815 5816 5816 5816 5817 5817 5817 5817 5816 5816 5815 5814 5812 5811 5810 5808 5806 5805 5803 5801 5800 5799 5797 5796 5795 5793 5792 5790 5788 5787
5803 5805 5805 5806 5807 5807 5808 5809 5809 5810 5810 5810 5810 5810 5810 5811 5811 5812 5812 5812 5812 5811 5810 5809 5808 5807 5805 5804 5802 5800 5798 5796 5794 5793 5791 5790 5788 5787 5786 5784 5782 5780 5779
5797 5799 5800 5800 5801 5802 5803 5804 5804 5805 5805 5805 5805 5805 5805 5805 5806 5807 5807 5807 5806 5805 5805 5804 5803 5801 5799 5798 5796 5794 5792 5790 5788 5786 5785 5783 5781 5779 5778 5776 5774 5772 5770
5791 5792 5793 5794 5795 5797 5798 5799 5800 5800 5801 5800 5800 5800 5800 5800 5801 5801 5801 5801 5800 5800 5799 5798 5797 5795 5794 5792 5790 5788 5786 5784 5781 5779 5778 5775 5773 5771 5769 5767 5765 5763 5761
5784 5785 5786 5788 5789 5790 5792 5793 5794 5795 5795 5795 5795 5794 5794 5794 5795 5795 5795 5795 5794 5794 5793 5792 5791 5789 5788 5786 5784 5782 5779 5777 5775 5772 5770 5768 5765 5763 5761 5758 5756 5754 5752
5776 5777 5779 5781 5782 5784 5785 5787 5788 5789 5790 5790 5789 5789 5789 5789 5789 5789 5789 5789 5788 5787 5787 5785 5784 5783 5781 5779 5777 5775 5772 5770 5768 5765 5762 5759 5757 5755 5752 5750 5747 5745 5743
5768 5770 5772 5773 5775 5777 5778 5779 5781 5782 5783 5784 5783 5783 5783 5783 5783 5783 5783 5783 5782 5781 5780 5779 5778 5776 5774 5772 5770 5768 5765 5763 5760 5757 5754 5751 5748 5746 5743 5740 5738 5736 5733
5760 5762 5764 5766 5768 5769 5771 5772 5774 5775 5776 5777 5777 5777 5777 5777 5777 5777 5776 5776 5775 5774 5773 5772 5770 5769 5766 5764 5762 5760 5757 5754 5752 5749 5745 5742 5739 5736 5733 5730 5728 5725 5723
5751 5754 5756 5758 5760 5761 5763 5765 5766 5768 5769 5769 5770 5770 5770 5770 5770 5770 5770 5769 5768 5768 5766 5765 5763 5761 5759 5756 5754 5751 5748 5745 5742 5739 5736 5732 5729 5725 5722 5719 5716 5713 5710
5742 5745 5748 5750 5752 5753 5755 5757 5759 5760 5761 5762 5762 5762 5762 5763 5763 5763 5762 5762 5761 5760 5759 5757 5756 5754 5751 5748 5745 5742 5739 5736 5732 5729 5725 5722 5718 5714 5710 5706 5703 5699 5696
5733 5736 5739 5742 5744 5746 5747 5749 5751 5752 5753 5754 5755 5755 5755 5756 5755 5755 5755 5754 5753 5752 5751 5749 5748 5745 5743 5740 5737 5733 5730 5727 5723 5718 5714 5710 5706 5702 5697 5693 5688 5684 5681
5723 5727 5730 5733 5735 5737 5739 5741 5743 5744 5745 5746 5747 5748 5748 5748 5748 5747 5747 5746 5745 5744 5743 5741 5739 5736 5734 5731 5727 5724 5721 5717 5714 5709 5703 5697 5692 5688 5683 5678 5673 5668 5663
5712 5716 5721 5724 5726 5729 5731 5733 5735 5737 5738 5739 5739 5740 5740 5741 5740 5740 5739 5738 5737 5736 5734 5732 5729 5727 5724 5721 5717 5713 5710 5705 5702 5700 5696 5689 5683 5676 5671 5665 5658 5653 5647
5699 5704 5709 5713 5717 5720 5723 5725 5727 5729 5731 5731 5732 5732 5733 5733 5733 5732 5731 5730 5729 5727 5725 5723 5720 5717 5713 5710 5706 5702 5698 5693 5688 5684 5682 5677 5671 5665 5659 5652 5644 5637 5630
5686 5692 5698 5703 5707 5711 5714 5717 5720 5722 5722 5723 5724 5725 5725 5725 5725 5724 5723 5721 5720 5718 5715 5713 5710 5706 5703 5699 5694 5690 5685 5681 5675 5670 5665 5661 5656 5650 5644 5637 5629 5621 5613